Location: Milevsko
(49.4500°N, 14.3670°E)
Time: 09:32:19
(UTC+02:00)

ISS - Pass Details

Date: 20 July 2018
Orbit: 402 x 408 km, 51.6° (Epoch: 17 July)

Event Time Altitude Azimuth Distance (km) Brightness Sun altitude
Rises 23:45:21 0° 254° (WSW) 2,318 0.1 -17.6°
Reaches altitude 10° 23:47:25 10° 256° (WSW) 1,461 -0.9 -17.7°
Maximum altitude 23:50:42 80° 342° (NNW) 416 -3.8 -17.9°
Drops below altitude 10° 23:54:00 10° 72° (ENE) 1,468 -1.0 -18.1°
Sets 23:56:05 0° 73° (ENE) 2,331 0.0 -18.2°
